Location: Çayiçi
(36.4667°N, 30.2333°E)
Time: 02:41:53
(UTC+00:00)

Cosmos 1400 Rocket - Pass Details

Date: 09 February 2023
Orbit: 515 x 557 km, 81.2° (Epoch: 01 April)

Event Time Altitude Azimuth Distance (km) Brightness Sun altitude
Rises 16:51:22 0° 173° (S) 2,640 6.3 -16.2°
Reaches altitude 10° 16:53:32 10° 167° (SSE) 1,763 5.3 -16.6°
Maximum altitude 16:57:14 44° 95° (E) 743 3.0 -17.3°
Enters shadow 16:58:20 35° 52° (NE) 885 3.4 -17.6°
